TimeHST,TemperatureF,Dew PointF,Humidity,Sea Level PressureIn,VisibilityMPH,Wind Direction,Wind SpeedMPH,Gust SpeedMPH,PrecipitationIn,Events,Conditions,WindDirDegrees,DateUTC
12:54 AM,-9999,-9999,N/A,30.06,10.0,North,9.2,-,N/A,,Clear,10,2013-01-31 10:54:00
1:54 AM,-9999,-9999,N/A,30.06,10.0,NNE,6.9,-,N/A,,Clear,20,2013-01-31 11:54:00
2:54 AM,-9999,-9999,N/A,30.05,10.0,ENE,3.5,-,N/A,,Clear,70,2013-01-31 12:54:00
3:46 AM,-9999,-9999,N/A,30.05,10.0,NNE,3.5,-,N/A,,Mostly Cloudy,30,2013-01-31 13:46:00
3:54 AM,-9999,-9999,N/A,30.05,10.0,NE,4.6,-,N/A,,Mostly Cloudy,40,2013-01-31 13:54:00
4:02 AM,-9999,-9999,N/A,30.05,10.0,NE,4.6,-,N/A,,Overcast,40,2013-01-31 14:02:00
4:24 AM,-9999,-9999,N/A,30.05,10.0,NNE,5.8,-,0.00,,Overcast,30,2013-01-31 14:24:00
4:54 AM,-9999,-9999,N/A,30.04,10.0,Variable,4.6,-,0.00,,Mostly Cloudy,0,2013-01-31 14:54:00
5:54 AM,-9999,-9999,N/A,30.05,10.0,North,8.1,-,N/A,,Scattered Clouds,10,2013-01-31 15:54:00
6:54 AM,-9999,-9999,N/A,30.07,10.0,North,9.2,-,0.01,,Mostly Cloudy,10,2013-01-31 16:54:00
7:15 AM,-9999,-9999,N/A,30.07,10.0,NE,6.9,-,N/A,,Overcast,40,2013-01-31 17:15:00
7:42 AM,-9999,-9999,N/A,30.08,10.0,NNE,8.1,-,N/A,,Scattered Clouds,30,2013-01-31 17:42:00
7:54 AM,-9999,-9999,N/A,30.08,10.0,NNE,8.1,-,N/A,,Partly Cloudy,20,2013-01-31 17:54:00
8:54 AM,73.0,66.0,79,30.10,10.0,NNE,10.4,19.6,N/A,,Partly Cloudy,20,2013-01-31 18:54:00
9:54 AM,73.9,66.0,76,30.11,10.0,NNE,11.5,19.6,N/A,,Partly Cloudy,20,2013-01-31 19:54:00
10:54 AM,75.0,66.0,73,30.12,10.0,NNE,13.8,23.0,N/A,,Scattered Clouds,20,2013-01-31 20:54:00
11:54 AM,75.9,66.9,74,30.11,10.0,North,13.8,23.0,N/A,,Partly Cloudy,360,2013-01-31 21:54:00
12:54 PM,75.9,66.0,71,30.08,10.0,NNE,13.8,23.0,N/A,,Scattered Clouds,30,2013-01-31 22:54:00
1:54 PM,73.9,66.0,76,30.06,10.0,NNE,13.8,23.0,N/A,,Overcast,20,2013-01-31 23:54:00
2:54 PM,73.0,64.9,76,30.04,10.0,North,13.8,25.3,N/A,,Mostly Cloudy,10,2013-02-01 00:54:00
3:46 PM,73.4,66.2,78,30.04,10.0,North,15.0,24.2,N/A,,Mostly Cloudy,10,2013-02-01 01:46:00
3:54 PM,73.9,66.0,76,30.05,10.0,NNE,12.7,25.3,N/A,,Scattered Clouds,20,2013-02-01 01:54:00
4:54 PM,73.0,64.9,76,30.06,10.0,NNE,11.5,24.2,N/A,,Scattered Clouds,30,2013-02-01 02:54:00
5:26 PM,71.6,64.4,78,30.07,10.0,NNE,15.0,26.5,N/A,,Mostly Cloudy,30,2013-02-01 03:26:00
5:44 PM,71.6,64.4,78,30.07,10.0,NNE,13.8,20.7,N/A,,Mostly Cloudy,20,2013-02-01 03:44:00
5:54 PM,71.1,64.9,81,30.07,10.0,NNE,11.5,26.5,N/A,,Scattered Clouds,20,2013-02-01 03:54:00
6:54 PM,71.1,64.0,78,30.08,10.0,NNE,11.5,20.7,N/A,,Scattered Clouds,20,2013-02-01 04:54:00
7:01 PM,71.6,64.4,78,30.08,10.0,NNE,12.7,19.6,N/A,,Mostly Cloudy,20,2013-02-01 05:01:00
7:54 PM,70.0,64.0,81,30.09,10.0,NNE,11.5,28.8,N/A,,Mostly Cloudy,30,2013-02-01 05:54:00
8:54 PM,70.0,64.0,81,30.12,10.0,NNE,11.5,20.7,N/A,,Overcast,30,2013-02-01 06:54:00
9:54 PM,70.0,63.0,78,30.13,10.0,NE,11.5,21.9,N/A,,Mostly Cloudy,40,2013-02-01 07:54:00
10:38 PM,69.8,62.6,78,30.12,10.0,NE,11.5,21.9,N/A,,Scattered Clouds,40,2013-02-01 08:38:00
10:54 PM,69.1,63.0,81,30.13,10.0,NE,9.2,18.4,N/A,,Scattered Clouds,40,2013-02-01 08:54:00
11:54 PM,69.1,62.1,78,30.11,10.0,NNE,15.0,25.3,N/A,,Clear,30,2013-02-01 09:54:00